Location: Fond Mahaut
(18.0707°N, 63.0465°W)
Time: 13:31:56
(UTC+00:00)

GEOS 3 Rocket - Pass Details

Date: 08 December 2019
Orbit: 782 x 837 km, 115.0° (Epoch: 26 January)

Event Time Altitude Azimuth Distance (km) Brightness Sun altitude
Exits shadow 23:38:55 53° 340° (NNW) 1,008 4.0 -28.2°
Maximum altitude 23:39:44 60° 301° (WNW) 943 4.0 -28.4°
Drops below altitude 10° 23:44:58 10° 222° (SW) 2,439 6.8 -29.6°
Sets 23:47:19 0° 218° (SW) 3,373 7.6 -30.1°
